EW0259 Weather Reports


time (UTC)temp
F
wind
direction
speed
knots
gust
knots
rain 1hr
in
rain 24hr
in
rain mn
in
humidity
%
barometer
mb
20260902173723 64 17 0.0 2.6 0.00 0.01 0.01 70 1007.0
20260902173230 64 101 0.9 2.6 0.00 0.01 0.01 70 1007.0
20260902172721 64 53 0.0 1.7 0.00 0.01 0.01 75 1007.1
20260902172230 64 52 0.0 3.5 0.00 0.01 0.01 75 1007.2
20260902171735 64 83 1.7 3.5 0.00 0.01 0.01 73 1007.1
20260902171222 63 104 0.0 1.7 0.00 0.01 0.01 75 1007.3
20260902170730 63 82 0.9 2.6 0.00 0.01 0.01 75 1007.3
20260902170236 63 100 0.0 2.6 0.00 0.01 0.01 75 1007.4
20260902165804 63 115 0.9 2.6 0.00 0.01 0.01 73 1007.5
20260902165732 63 115 0.9 2.6 0.00 0.01 0.01 73 1007.5
20260902165300 64 77 0.0 1.7 0.00 0.01 0.01 74 1007.5
20260902164733 64 148 0.0 1.7 0.00 0.01 0.01 72 1007.7
20260902164301 64 175 0.0 3.5 0.00 0.01 0.01 73 1007.7
20260902163756 64 223 0.0 3.5 0.00 0.01 0.01 74 1007.7
20260902163724 64 223 0.0 3.5 0.00 0.01 0.01 74 1007.7
20260902162738 64 156 0.0 1.7 0.00 0.01 0.01 73 1007.7
20260902162307 64 271 0.0 1.7 0.00 0.01 0.01 73 1007.7
20260902162235 64 271 0.0 1.7 0.00 0.01 0.01 73 1007.7
20260902161733 64 329 0.0 2.6 0.00 0.01 0.01 74 1007.7
20260902161225 64 253 0.0 2.6 0.00 0.01 0.01 71 1007.7
20260902160731 64 118 0.9 2.6 0.00 0.01 0.01 73 1007.6
20260902160238 64 115 0.9 1.7 0.00 0.01 0.01 78 1007.7
20260902155805 64 82 0.0 1.7 0.00 0.01 0.01 79 1007.7
20260902155222 64 82 0.0 3.5 0.00 0.01 0.01 76 1007.6
20260902154727 64 90 0.9 3.5 0.00 0.01 0.01 79 1007.8
20260902154255 63 87 0.9 2.6 0.00 0.01 0.01 81 1007.8
20260902153730 62 53 0.0 1.7 0.00 0.01 0.01 83 1008.1
20260902153238 62 53 0.9 1.7 0.00 0.01 0.01 85 1008.0
20260902152805 61 53 0.0 0.9 0.00 0.01 0.01 87 1008.1
20260902152302 59 53 0.0 0.0 0.00 0.01 0.01 90 1008.0
20260902151737 59 53 0.0 0.0 0.00 0.01 0.01 92 1008.2
20260902151223 58 53 0.0 0.0 0.00 0.01 0.01 92 1008.1
20260902150730 58 53 0.0 0.0 0.00 0.01 0.01 92 1008.2
20260902150221 58 53 0.0 0.0 0.00 0.01 0.01 92 1008.2
20260902145728 58 53 0.0 0.0 0.00 0.01 0.01 93 1008.2
20260902145236 58 53 0.0 0.0 0.00 0.01 0.01 93 1008.3
20260902144722 58 53 0.0 0.0 0.00 0.01 0.01 94 1008.4
20260902144229 57 53 0.0 0.0 0.00 0.01 0.01 94 1008.5
20260902143736 57 53 0.0 0.0 0.00 0.01 0.01 95 1008.6
20260902143303 56 53 0.0 0.0 0.00 0.01 0.01 95 1008.7
20260902143231 56 53 0.0 0.0 0.00 0.01 0.01 95 1008.7
20260902142738 56 53 0.0 0.0 0.00 0.01 0.01 95 1008.7
20260902142227 55 53 0.0 0.0 0.00 0.01 0.01 94 1008.9
20260902141732 55 53 0.0 0.0 0.00 0.01 0.01 94 1008.9
20260902141239 55 53 0.0 0.0 0.00 0.01 0.01 94 1008.8
20260902140730 55 53 0.0 0.0 0.00 0.01 0.01 94 1008.7
20260902140257 55 53 0.0 0.0 0.00 0.01 0.01 94 1008.8
20260902135732 55 53 0.0 0.0 0.00 0.01 0.01 94 1008.7
20260902135300 55 53 0.0 0.0 0.00 0.01 0.01 94 1008.7
20260902134734 55 53 0.0 0.0 0.00 0.01 0.01 94 1008.6
20260902134221 55 53 0.0 0.0 0.00 0.01 0.01 93 1008.6
20260902133728 55 53 0.0 0.0 0.00 0.01 0.01 93 1008.7
20260902133235 55 53 0.0 0.0 0.00 0.01 0.01 93 1008.7
20260902132722 55 53 0.0 0.0 0.00 0.01 0.01 93 1008.7
20260902132230 56 53 0.0 0.0 0.00 0.01 0.01 93 1008.7
20260902131756 56 53 0.0 0.0 0.00 0.01 0.01 93 1008.7
20260902131232 56 53 0.0 0.0 0.00 0.01 0.01 93 1008.7
20260902130759 56 53 0.0 0.0 0.00 0.01 0.01 92 1008.8
20260902130234 56 53 0.0 0.0 0.00 0.01 0.01 93 1009.0
20260902125222 57 53 0.0 0.0 0.00 0.01 0.01 93 1009.0
20260902124728 57 53 0.0 0.0 0.00 0.01 0.01 93 1009.1
20260902124235 57 53 0.0 0.0 0.00 0.01 0.01 93 1009.2
20260902123802 57 53 0.0 0.0 0.00 0.01 0.01 93 1009.2
20260902123238 57 53 0.0 0.0 0.00 0.01 0.01 93 1009.2
20260902122725 57 53 0.0 0.0 0.00 0.01 0.01 93 1009.2
20260902122253 57 53 0.0 0.0 0.00 0.01 0.01 93 1009.2
20260902122221 57 53 0.0 0.0 0.00 0.01 0.01 93 1009.2
20260902121727 57 53 0.0 0.0 0.00 0.01 0.01 93 1009.2
20260902121234 57 53 0.0 0.0 0.00 0.01 0.01 93 1009.3
20260902120721 57 53 0.0 0.0 0.00 0.01 0.01 93 1009.3
20260902120228 57 53 0.0 1.7 0.00 0.01 0.01 93 1009.4
20260902115756 57 53 0.0 1.7 0.00 0.01 0.01 93 1009.4
20260902115232 57 53 0.0 1.7 0.00 0.01 0.01 93 1009.4
20260902114258 57 335 0.0 0.0 0.00 0.01 0.01 93 1009.6
20260902113733 57 335 0.0 0.0 0.00 0.01 0.01 93 1009.6
20260902113224 57 335 0.0 0.0 0.00 0.01 0.01 93 1009.6
20260902112731 57 335 0.0 0.0 0.00 0.01 0.01 93 1009.6
20260902112239 58 335 0.0 0.0 0.00 0.01 0.01 93 1009.7
20260902111725 58 335 0.0 0.0 0.00 0.01 0.01 93 1009.7
20260902111232 58 335 0.0 0.0 0.00 0.01 0.01 93 1009.7
20260902110739 58 335 0.0 0.0 0.00 0.01 0.01 93 1009.8
20260902110306 58 335 0.0 0.0 0.00 0.01 0.01 93 1009.8
20260902110234 58 335 0.0 0.0 0.00 0.01 0.01 93 1009.8
20260902105721 58 335 0.0 0.0 0.00 0.01 0.01 93 1009.8
20260902105309 58 335 0.0 0.0 0.00 0.01 0.01 93 1009.9
20260902105238 58 335 0.0 0.0 0.00 0.01 0.01 93 1009.9
20260902104310 58 277 0.0 0.0 0.00 0.01 0.01 94 1009.9
20260902103725 58 277 0.0 0.0 0.00 0.01 0.01 93 1009.9
20260902103232 58 277 0.0 0.0 0.00 0.01 0.01 93 1010.0
20260902102723 58 277 0.0 1.7 0.00 0.01 0.01 93 1010.0
20260902102231 58 277 0.0 1.7 0.00 0.01 0.01 93 1010.1
20260902101757 58 70 0.0 0.0 0.00 0.01 0.01 93 1010.2
20260902101252 58 70 0.0 0.0 0.00 0.01 0.01 93 1010.1
20260902101221 58 70 0.0 0.0 0.00 0.01 0.01 93 1010.1
20260902100727 58 70 0.0 0.0 0.00 0.01 0.01 93 1010.2
20260902100234 58 70 0.0 0.0 0.00 0.01 0.01 92 1010.2
20260902095721 58 70 0.0 0.0 0.01 0.01 0.01 92 1010.2
20260902095228 58 70 0.0 0.0 0.01 0.01 0.01 92 1010.2
20260902094734 58 70 0.0 0.0 0.01 0.01 0.01 92 1010.2
20260902094221 58 70 0.0 0.0 0.01 0.01 0.01 92 1010.3
20260902093728 58 70 0.0 0.0 0.01 0.01 0.01 92 1010.2
20260902093234 58 70 0.0 0.0 0.01 0.01 0.01 92 1010.3
20260902092725 58 70 0.0 0.0 0.01 0.01 0.01 92 1010.2
20260902092233 58 70 0.0 0.0 0.01 0.01 0.01 92 1010.4
20260902091739 59 70 0.0 0.0 0.01 0.01 0.01 92 1010.3
20260902091226 59 70 0.0 0.0 0.01 0.01 0.01 92 1010.4
20260902090753 59 70 0.0 0.0 0.01 0.01 0.01 92 1010.4
20260902090228 59 70 0.0 0.0 0.01 0.01 0.01 92 1010.5
20260902085735 59 70 0.0 0.0 0.00 0.00 0.00 92 1010.5
20260902085223 59 70 0.0 0.0 0.00 0.00 0.00 92 1010.6
20260902084729 59 70 0.0 0.0 0.00 0.00 0.00 92 1010.7
20260902084237 59 70 0.0 0.0 0.00 0.00 0.00 92 1010.7
20260902083804 59 70 0.0 0.0 0.00 0.00 0.00 91 1010.7
20260902083259 59 70 0.0 0.0 0.00 0.00 0.00 91 1010.8
20260902082734 59 70 0.0 0.0 0.00 0.00 0.00 91 1010.8
20260902082308 59 70 0.0 0.0 0.00 0.00 0.00 91 1010.8
20260902082231 59 70 0.0 0.0 0.00 0.00 0.00 91 1010.8
20260902081720 59 70 0.0 0.0 0.00 0.00 0.00 91 1010.8
20260902081227 59 70 0.0 0.0 0.00 0.00 0.00 91 1010.8
20260902080734 59 70 0.0 0.0 0.00 0.00 0.00 91 1010.8
20260902080302 59 70 0.0 0.0 0.00 0.00 0.00 91 1010.8
20260902075736 59 70 0.0 0.0 0.00 0.00 0.00 91 1010.8
20260902075224 59 70 0.0 0.0 0.00 0.00 0.00 91 1010.9
20260902074810 59 70 0.0 0.0 0.00 0.00 0.00 91 1010.8
20260902074225 59 70 0.0 0.0 0.00 0.00 0.00 91 1011.0
20260902073732 59 70 0.0 0.0 0.00 0.00 0.00 91 1011.0
20260902073239 59 70 0.0 0.9 0.00 0.00 0.00 90 1011.0
20260902072806 59 70 0.0 1.7 0.00 0.00 0.00 90 1011.1
20260902072223 59 127 0.0 0.0 0.00 0.00 0.00 91 1011.0
20260902071809 59 135 0.0 1.7 0.00 0.00 0.00 91 1011.1
20260902071306 59 135 0.0 1.7 0.00 0.00 0.00 91 1011.1
20260902070721 59 168 0.0 1.7 0.00 0.00 0.00 91 1011.2
20260902070232 59 113 0.0 1.7 0.00 0.00 0.00 91 1011.2
20260902065739 59 126 0.0 1.7 0.00 0.00 0.00 91 1011.2
20260902065227 59 126 0.9 1.7 0.00 0.00 0.00 91 1011.2
20260902064752 59 102 0.0 0.0 0.00 0.00 0.00 91 1011.2
20260902064227 59 102 0.0 0.0 0.00 0.00 0.00 91 1011.3
20260902063734 59 102 0.0 1.7 0.00 0.00 0.00 91 1011.4
20260902063221 59 102 0.0 1.7 0.00 0.00 0.00 91 1011.3
20260902062728 59 102 0.0 1.7 0.00 0.00 0.00 91 1011.4
20260902062237 59 102 0.9 1.7 0.00 0.00 0.00 91 1011.4
20260902061721 59 115 0.0 1.7 0.00 0.00 0.00 91 1011.5
20260902061228 59 119 0.0 1.7 0.00 0.00 0.00 91 1011.4
20260902060739 59 119 0.9 1.7 0.00 0.00 0.00 91 1011.4
20260902060306 59 55 0.0 1.7 0.00 0.00 0.00 92 1011.5
20260902055721 59 55 0.0 1.7 0.00 0.00 0.00 91 1011.5
20260902055309 59 141 0.0 0.0 0.00 0.00 0.00 92 1011.4
20260902055237 59 141 0.0 0.0 0.00 0.00 0.00 92 1011.4
20260902054723 59 141 0.0 0.0 0.00 0.00 0.00 92 1011.4
20260902054230 59 141 0.0 0.0 0.00 0.00 0.00 92 1011.4
20260902053737 59 141 0.0 1.7 0.00 0.00 0.00 92 1011.5
20260902053224 59 141 0.0 1.7 0.00 0.00 0.00 92 1011.5
20260902052731 59 117 0.0 1.7 0.00 0.00 0.00 92 1011.7
20260902052240 59 117 0.9 1.7 0.00 0.00 0.00 92 1011.7
20260902051725 59 70 0.0 1.7 0.00 0.00 0.00 92 1011.7
20260902051232 59 70 0.0 1.7 0.00 0.00 0.00 92 1011.7
20260902050800 59 70 0.0 1.7 0.00 0.00 0.00 92 1011.8
20260902050239 59 70 0.0 1.7 0.00 0.00 0.00 92 1011.8
20260902045726 59 64 0.0 1.7 0.00 0.00 0.00 92 1011.7
20260902045234 59 65 0.0 1.7 0.00 0.00 0.00 92 1011.8
20260902044720 59 47 0.0 0.0 0.00 0.00 0.00 92 1011.6
20260902044227 59 47 0.0 0.0 0.00 0.00 0.00 92 1011.7
20260902043734 59 47 0.0 0.0 0.00 0.00 0.00 92 1011.6
20260902043302 59 47 0.0 0.0 0.00 0.00 0.00 91 1011.7
20260902042737 59 47 0.0 0.0 0.00 0.00 0.00 91 1011.8
20260902042225 59 47 0.0 0.0 0.00 0.00 0.00 91 1011.8
20260902041811 59 46 0.0 0.0 0.00 0.00 0.00 91 1011.8
20260902041740 59 46 0.0 0.0 0.00 0.00 0.00 91 1011.8
20260902041226 59 47 0.0 0.0 0.00 0.00 0.00 91 1011.7
20260902040733 59 47 0.0 0.0 0.00 0.00 0.00 91 1011.7
20260902040224 59 47 0.0 0.0 0.00 0.00 0.00 91 1011.7
20260902035731 59 47 0.0 0.0 0.00 0.00 0.00 91 1011.7
20260902035239 60 46 0.0 0.0 0.00 0.00 0.00 91 1011.7
20260902034725 60 44 0.0 0.0 0.00 0.00 0.00 91 1011.7
20260902034232 60 44 0.0 0.0 0.00 0.00 0.00 90 1011.7
20260902033734 60 44 0.0 0.0 0.00 0.00 0.00 89 1011.8
20260902033257 60 44 0.0 0.0 0.00 0.00 0.00 89 1011.7
20260902032752 60 44 0.0 0.0 0.00 0.00 0.00 89 1011.7
20260902032720 60 44 0.0 0.0 0.00 0.00 0.00 89 1011.7
20260902032228 60 44 0.0 0.0 0.00 0.00 0.00 88 1011.7
20260902031734 60 44 0.0 0.0 0.00 0.00 0.00 87 1011.8
20260902031221 61 322 0.0 1.7 0.00 0.00 0.00 86 1011.7
20260902030728 61 281 0.0 1.7 0.00 0.00 0.00 85 1011.6
20260902030239 61 99 0.0 1.7 0.00 0.00 0.00 84 1011.6
20260902025806 61 46 0.0 1.7 0.00 0.00 0.00 83 1011.6
20260902025222 62 348 0.0 7.0 0.00 0.00 0.00 82 1011.5
20260902024727 62 148 0.9 7.0 0.00 0.00 0.00 80 1011.6
20260902024229 63 276 2.6 9.6 0.00 0.00 0.00 79 1011.5
20260902023736 64 327 2.6 8.7 0.00 0.00 0.00 77 1011.4
20260902023303 64 323 0.0 2.6 0.00 0.00 0.00 76 1011.2
20260902023231 64 323 0.0 2.6 0.00 0.00 0.00 76 1011.2
20260902022737 64 45 0.9 2.6 0.00 0.00 0.00 76 1011.2
20260902022225 64 145 0.0 1.7 0.00 0.00 0.00 77 1011.2
20260902021731 64 145 0.0 1.7 0.00 0.00 0.00 77 1011.2
20260902021238 64 70 0.0 1.7 0.00 0.00 0.00 77 1011.3
20260902020725 64 70 0.0 1.7 0.00 0.00 0.00 77 1011.4
20260902020236 64 55 0.0 1.7 0.00 0.00 0.00 77 1011.4
20260902015723 64 55 0.0 1.7 0.00 0.00 0.00 77 1011.2
20260902015311 64 55 0.0 1.7 0.00 0.00 0.00 77 1011.4
20260902014805 64 55 0.0 1.7 0.00 0.00 0.00 77 1011.4
20260902014733 64 55 0.0 1.7 0.00 0.00 0.00 77 1011.4
20260902014220 64 355 0.9 1.7 0.00 0.00 0.00 76 1011.4
20260902013727 64 268 0.0 1.7 0.00 0.00 0.00 76 1011.4
20260902013234 65 311 0.9 2.6 0.00 0.00 0.00 75 1011.5
20260902012721 65 265 0.9 2.6 0.00 0.00 0.00 74 1011.4
20260902012229 65 360 0.0 2.6 0.00 0.00 0.00 74 1011.4
20260902011734 65 167 0.0 4.3 0.00 0.00 0.00 74 1011.4
20260902011221 65 334 0.9 4.3 0.00 0.00 0.00 73 1011.5
20260902010728 65 331 0.9 3.5 0.00 0.00 0.00 73 1011.4
20260902010256 65 29 0.9 3.5 0.00 0.00 0.00 73 1011.4
20260902005735 65 273 0.9 3.5 0.00 0.00 0.00 73 1011.4
20260902005223 65 319 0.9 1.7 0.00 0.00 0.00 73 1011.4
20260902004730 65 124 0.0 3.5 0.00 0.00 0.00 73 1011.5
20260902004253 65 29 1.7 3.5 0.00 0.00 0.00 73 1011.4
20260902003728 65 292 0.0 1.7 0.00 0.00 0.00 74 1011.4
20260902003235 65 321 0.0 1.7 0.00 0.00 0.00 74 1011.5
20260902002722 65 183 0.9 1.7 0.00 0.00 0.00 74 1011.6
20260902002230 65 127 0.9 2.6 0.00 0.00 0.00 75 1011.6
20260902001736 65 351 0.9 2.6 0.00 0.00 0.00 75 1011.6
20260902001223 65 273 0.9 1.7 0.00 0.00 0.00 74 1011.5
20260902000810 65 284 0.0 3.5 0.00 0.00 0.00 74 1011.5
20260902000738 65 284 0.0 3.5 0.00 0.00 0.00 74 1011.5
20260902000226 65 100 0.9 3.5 0.00 0.00 0.00 74 1011.5
20260901235736 65 306 0.0 2.6 0.00 0.00 0.00 74 1011.5
20260901235239 65 314 0.0 2.6 0.00 0.00 0.00 74 1011.5
20260901234725 65 292 0.9 3.5 0.00 0.00 0.00 74 1011.6
20260901234232 65 304 0.9 2.6 0.00 0.00 0.00 74 1011.4
20260901233739 65 63 0.9 2.6 0.00 0.00 0.00 74 1011.5
20260901233221 65 336 0.9 2.6 0.00 0.00 0.00 74 1011.6
20260901232728 65 55 0.0 2.6 0.00 0.00 0.00 75 1011.5
20260901232235 65 248 0.0 2.6 0.00 0.00 0.00 75 1011.5
20260901231720 65 299 0.0 1.7 0.00 0.00 0.00 76 1011.6
20260901231307 64 24 0.9 1.7 0.00 0.00 0.00 76 1011.4
20260901231235 64 24 0.9 1.7 0.00 0.00 0.00 76 1011.4
20260901230742 64 160 0.9 2.6 0.00 0.00 0.00 76 1011.4
20260901230223 64 74 0.9 3.5 0.00 0.00 0.00 76 1011.5
20260901225730 64 292 0.9 3.5 0.00 0.00 0.00 76 1011.6
20260901225238 64 334 0.0 3.5 0.00 0.00 0.00 76 1011.6
20260901224724 64 159 0.0 3.5 0.00 0.00 0.00 76 1011.5
20260901224252 64 315 0.9 5.2 0.00 0.00 0.00 76 1011.6
20260901223807 64 295 0.9 5.2 0.00 0.00 0.00 76 1011.6
20260901223735 64 295 0.9 5.2 0.00 0.00 0.00 76 1011.6
20260901223222 64 115 0.0 2.6 0.00 0.00 0.00 76 1011.6
20260901222809 64 313 0.0 3.5 0.00 0.00 0.00 76 1011.7
20260901222306 64 57 0.9 3.5 0.00 0.00 0.00 76 1011.6
20260901221720 64 303 1.7 3.5 0.00 0.00 0.00 75 1011.7
20260901221227 64 205 0.9 2.6 0.00 0.00 0.00 76 1011.6
20260901220734 64 149 0.9 5.2 0.00 0.00 0.00 76 1011.6
20260901220221 65 285 2.6 5.2 0.00 0.00 0.00 74 1011.6
20260901215728 65 14 0.9 5.2 0.00 0.00 0.00 74 1011.4
20260901215256 65 283 1.7 6.1 0.00 0.00 0.00 75 1011.4
20260901215224 65 283 1.7 6.1 0.00 0.00 0.00 75 1011.4
20260901214257 65 52 0.9 7.0 0.00 0.00 0.00 75 1011.4
20260901213753 64 292 0.9 7.0 0.00 0.00 0.00 75 1011.4
20260901213232 65 265 2.6 7.0 0.00 0.00 0.00 74 1011.4
20260901212739 65 165 1.7 6.1 0.00 0.00 0.00 74 1011.5
20260901212227 65 235 0.9 5.2 0.00 0.00 0.00 74 1011.6
20260901211733 65 252 0.9 2.6 0.00 0.00 0.00 73 1011.6
20260901211220 66 276 0.9 3.5 0.00 0.00 0.00 74 1011.5
20260901210808 65 302 0.9 3.5 0.00 0.00 0.00 74 1011.7
20260901210304 65 262 1.7 3.5 0.00 0.00 0.00 74 1011.6
20260901205800 65 283 1.7 2.6 0.00 0.00 0.00 75 1011.4
20260901205236 65 302 0.9 1.7 0.00 0.00 0.00 75 1011.5
20260901204722 65 297 0.0 1.7 0.00 0.00 0.00 75 1011.6
20260901204229 65 301 0.9 1.7 0.00 0.00 0.00 75 1011.6
20260901203736 65 281 0.9 2.6 0.00 0.00 0.00 75 1011.6
20260901203303 65 153 0.9 2.6 0.00 0.00 0.00 76 1011.7
20260901203231 65 153 0.9 2.6 0.00 0.00 0.00 76 1011.7
20260901202759 64 66 0.9 2.6 0.00 0.00 0.00 76 1011.7
20260901202236 64 71 0.0 1.7 0.00 0.00 0.00 77 1011.7
20260901201801 64 57 0.0 1.7 0.00 0.00 0.00 77 1011.6
20260901201221 64 56 0.9 2.6 0.00 0.00 0.00 77 1011.6
20260901200728 64 74 0.9 2.6 0.00 0.00 0.00 77 1011.6
20260901200235 64 84 0.9 2.6 0.00 0.00 0.00 77 1011.6
20260901195722 64 85 1.7 3.5 0.00 0.00 0.00 77 1011.6
20260901195231 64 109 1.7 5.2 0.00 0.00 0.00 77 1011.6
20260901194736 64 92 1.7 5.2 0.00 0.00 0.00 76 1011.7
20260901194223 64 146 2.6 4.3 0.00 0.00 0.00 77 1011.7
20260901193730 64 74 2.6 4.3 0.00 0.00 0.00 77 1011.7
20260901193237 64 63 0.9 1.7 0.00 0.00 0.00 77 1011.8
20260901192724 63 84 0.0 2.6 0.00 0.00 0.00 78 1011.8
20260901192253 63 84 0.9 4.3 0.00 0.00 0.00 78 1011.7
20260901191731 63 80 0.9 4.3 0.00 0.00 0.00 77 1011.7
20260901191238 64 51 0.0 2.6 0.00 0.00 0.00 78 1011.8
20260901190806 64 80 0.9 4.3 0.00 0.00 0.00 77 1011.8
20260901190221 64 86 0.9 4.3 0.00 0.00 0.00 77 1011.8
20260901185728 64 86 0.9 5.2 0.00 0.00 0.00 78 1011.8
20260901185231 64 92 1.7 5.2 0.00 0.00 0.00 77 1011.8
20260901184757 64 78 1.7 5.2 0.00 0.00 0.00 76 1011.8
20260901184232 64 83 0.0 2.6 0.00 0.00 0.00 78 1011.9
20260901183739 64 83 0.0 2.6 0.00 0.00 0.00 77 1011.8
20260901183226 64 105 0.9 1.7 0.00 0.00 0.00 77 1011.8
20260901182732 63 236 0.9 1.7 0.00 0.00 0.00 78 1011.8
20260901182240 63 80 0.0 2.6 0.00 0.00 0.00 79 1011.7
20260901181730 63 74 0.9 2.6 0.00 0.00 0.00 79 1011.7
20260901181237 63 134 2.6 2.6 0.00 0.00 0.00 79 1011.7
20260901180805 63 76 1.7 2.6 0.00 0.00 0.00 80 1011.8
20260901180220 62 94 0.9 3.5 0.00 0.00 0.00 80 1011.7
20260901175727 62 130 0.9 2.6 0.00 0.00 0.00 80 1011.7
20260901175255 62 102 0.9 2.6 0.00 0.00 0.00 81 1011.7
20260901174729 62 169 0.0 4.3 0.00 0.00 0.00 81 1011.7
20260901174256 62 92 1.7 3.5 0.00 0.00 0.00 81 1011.7